This demonstration page uses our WeatherBlox Daily Observations layout. Learn more.

Left ArrowRight Arrow

Hourly Observations for May 8, 2020

Temp ( °F °C ) Dew Point ( °F °C ) Humidity (%) Winds ( mph kmh ) Pressure ( in mb ) Visibility ( mi km ) Precip ( " mm )
12:51 am 00:51 Clear 70 21.1 18 -7.8 14 14 WNW 7 11 29.75 1007 10 16.0934 0 0
1:51 am 01:51 Clear 68 20 18 -7.8 15 15 SW 6 9 29.75 1007 10 16.0934 0 0
2:51 am 02:51 Clear 62 16.7 17 -8.3 17 17 SSE 7 11 29.76 1008 10 16.0934 0 0
3:51 am 03:51 Clear 61 16.1 17 -8.3 18 18 E 5 7 29.77 1008 10 16.0934 0 0
4:51 am 04:51 Clear 62 16.7 18 -7.8 18 18 SE 5 7 29.78 1008 10 16.0934 0 0
5:51 am 05:51 Sunny 60 15.6 19 -7.2 20 20 E 5 7 29.81 1010 10 16.0934 0 0
6:51 am 06:51 Sunny 66 18.9 24 -4.4 20 20 SE 6 9 29.83 1010 10 16.0934 0 0
7:51 am 07:51 Sunny 75 23.9 27 -2.8 17 17 SSE 7 11 29.84 1010 10 16.0934 0 0
8:51 am 08:51 Sunny 83 28.3 24 -4.4 11 11 ESE 8 13 29.85 1011 10 16.0934 0 0
9:51 am 09:51 Sunny 86 30 24 -4.4 10 10 VRB 5 7 29.85 1011 10 16.0934 0 0
10:51 am 10:51 Sunny 91 32.8 25 -3.9 9 9 ENE 6 9 29.84 1011 10 16.0934 0 0
11:51 am 11:51 Sunny 94 34.4 25 -3.9 8 8 S 8 13 29.82 1010 10 16.0934 0 0
12:51 pm 12:51 Sunny 94 34.4 28 -2.2 9 9 Calm 29.8 1009 10 16.0934 0 0
1:51 pm 13:51 Sunny 95 35 26 -3.3 8 8 VRB 6 9 29.78 1008 10 16.0934 0 0
2:51 pm 14:51 Sunny 98 36.7 27 -2.8 8 8 NNW 14 22 29.75 1008 10 16.0934 0 0
3:51 pm 15:51 Sunny 98 36.7 27 -2.8 8 8 NW 16 26 29.73 1007 10 16.0934 0 0
4:51 pm 16:51 Sunny 95 35 27 -2.8 9 9 WNW 18 30 29.73 1007 10 16.0934 0 0
5:51 pm 17:51 Sunny 94 34.4 29 -1.7 10 10 NW 13 20 29.74 1007 10 16.0934 0 0
6:51 pm 18:51 Sunny 89 31.7 28 -2.2 11 11 WNW 18 30 29.75 1008 10 16.0934 0 0
7:51 pm 19:51 Clear 86 30 30 -1.1 13 13 NW 12 19 29.77 1008 10 16.0934 0 0
8:51 pm 20:51 Clear 84 28.9 31 -0.6 15 15 NW 15 24 29.78 1008 10 16.0934 0 0
9:51 pm 21:51 Clear 83 28.3 32 0 16 16 NW 12 19 29.79 1009 10 16.0934 0 0
10:51 pm 22:51 Clear 79 26.1 32 0 18 18 NNE 5 7 29.81 1010 10 16.0934 0 0
11:51 pm 23:51 Clear 77 25 41 5 28 28 E 10 17 29.82 1010 10 16.0934 0 0

Powered by AerisWeather